Location: Crescent
(42.8242°N, 73.7329°W)
Time: 06:02:43
(UTC+00:00)

Vanguard 2 Rocket - Pass Details

Date: 24 February 2026
Orbit: 553 x 3286 km, 32.9° (Epoch: 13 March)

Event Time Altitude Azimuth Distance (km) Brightness Sun altitude
Rises 22:19:50 0° 277° (W) 6,521 12.8 2.4°
Reaches altitude 10° 22:26:47 10° 261° (W) 4,950 13.1 1.2°
Maximum altitude 22:33:52 16° 229° (SW) 3,753 11.2 -0.1°
Drops below altitude 10° 22:39:21 10° 194° (SSW) 3,644 10.4 -1.0°
Sets 22:43:17 0° 174° (S) 4,157 10.3 -1.7°
